Tracking 30922 objects as of 2-Jul-2025
HD Live streaming from Space Station
objects crossing your sky now

THORAD DELTA 1 DEB

Track THORAD DELTA 1 DEB now!
10-day predictions


NORAD ID: 8178
Int'l Code: 1974-089AU
Perigee: 1,312.7 km
Apogee: 1,582.3 km
Inclination: 102.2 °
Period: 114.7 minutes
Semi major axis: 7818 km
RCS: 0.0233 m2 (small)
Launch date: November 15, 1974
Source: United States (US)
Launch site: AIR FORCE WESTERN TEST RANGE (AFWTR)

Note: This is SATELLITE DEBRIS
Your satellite tracking list
FENGYUN 1C DEB
Track 1 satellite(s)




NASA's NSSDC Master Catalog

Two Line Element Set (TLE):
1 08178U 74089AU  25180.09874623  .00000917  00000-0  55667-2 0  9995
2 08178 102.2120 230.7158 0172373 314.7906  70.3765 12.55790486281571
Source of the keplerian elements: AFSPC